Location: Aigremont
(47.7188°N, 3.8925°E)
Time: 09:01:46
(UTC+00:00)

STARLINK-1165 - Pass Details

Date: 18 February 2020
Orbit: 554 x 556 km, 53.0° (Epoch: 04 April)

Event Time Altitude Azimuth Distance (km) Brightness Sun altitude
Exits shadow 04:03:35 34° 33° (NNE) 948 5.1 -27.9°
Drops below altitude 10° 04:06:25 10° 63° (ENE) 1,863 7.2 -27.4°
Enters shadow 05:03:57 -69° 268° (W) 12,461 10.4 -17.9°
Maximum altitude 05:42:45 45° 12° (NNE) 775 4.4 -11.3°
